QPF
0.00 0.00 0.01 0.04 0.11 0.10 0.05 0.04 0.02 0.01 0.01 0.01 0.00 0.01 0.02 0.02 0.03 0.05 0.06 0.06 0.05 0.07 0.08 0.06 0.05 0.04 0.04 0.04 0.03 0.02 0.13 0.15 0.08 0.05 0.04 0.04 0.03 0.03 0.03 0.04 0.04 0.05 0.06 0.06 0.06 0.06 0.07 0.07 0.05
0.00 0.03 0.03 0.06 0.10 0.06 0.04 0.02 0.02 0.01 0.00 0.00 0.00 0.00 0.01 0.01 0.01 0.02 0.04 0.04 0.02 0.03 0.04 0.04 0.02 0.02 0.02 0.03 0.03 0.04 0.11 0.18 0.08 0.06 0.05 0.05 0.06 0.06 0.05 0.07 0.06 0.08 0.10 0.10 0.07 0.06 0.06 0.05 0.05
0.01 0.05 0.06 0.08 0.04 0.03 0.03 0.01 0.01 0.00 0.00 0.01 0.01 0.01 0.01 0.02 0.02 0.03 0.03 0.02 0.02 0.02 0.03 0.02 0.01 0.01 0.02 0.02 0.03 0.06 0.12 0.20 0.09 0.08 0.06 0.07 0.08 0.07 0.08 0.10 0.09 0.10 0.11 0.11 0.09 0.07 0.06 0.05 0.04
0.02 0.03 0.04 0.07 0.04 0.03 0.03 0.01 0.00 0.01 0.01 0.01 0.01 0.02 0.02 0.03 0.02 0.03 0.02 0.01 0.03 0.03 0.03 0.02 0.02 0.02 0.02 0.02 0.03 0.04 0.12 0.14 0.10 0.10 0.09 0.09 0.10 0.08 0.07 0.07 0.09 0.10 0.12 0.12 0.09 0.09 0.09 0.07 0.06
0.05 0.04 0.06 0.04 0.04 0.03 0.01 0.00 0.00 0.02 0.01 0.01 0.01 0.02 0.03 0.04 0.04 0.02 0.01 0.02 0.03 0.03 0.03 0.02 0.02 0.01 0.01 0.03 0.05 0.06 0.09 0.07 0.07 0.06 0.08 0.09 0.12 0.13 0.10 0.07 0.08 0.10 0.18 0.16 0.11 0.10 0.08 0.07 0.05
0.06 0.04 0.05 0.03 0.02 0.01 0.00 0.00 0.00 0.01 0.00 0.00 0.01 0.02 0.05 0.05 0.04 0.02 0.02 0.03 0.04 0.07 0.03 0.03 0.02 0.01 0.01 0.04 0.05 0.05 0.05 0.05 0.05 0.06 0.06 0.06 0.06 0.08 0.08 0.06 0.07 0.09 0.23 0.25 0.14 0.13 0.11 0.09 0.08
0.03 0.02 0.02 0.02 0.01 0.01 0.01 0.00 0.01 0.01 0.01 0.00 0.01 0.02 0.03 0.04 0.03 0.02 0.02 0.02 0.03 0.04 0.02 0.02 0.02 0.02 0.01 0.02 0.03 0.03 0.04 0.04 0.05 0.06 0.05 0.05 0.05 0.07 0.08 0.07 0.09 0.12 0.30 0.32 0.17 0.15 0.16 0.15 0.13
0.01 0.02 0.01 0.02 0.02 0.02 0.01 0.00 0.00 0.01 0.01 0.00 0.00 0.01 0.02 0.02 0.01 0.02 0.03 0.03 0.02 0.02 0.02 0.02 0.03 0.04 0.04 0.04 0.04 0.04 0.03 0.04 0.05 0.04 0.04 0.06 0.06 0.06 0.07 0.06 0.08 0.15 0.35 0.30 0.15 0.13 0.16 0.17 0.16
0.03 0.05 0.02 0.02 0.02 0.02 0.01 0.01 0.00 0.01 0.01 0.01 0.01 0.01 0.01 0.01 0.02 0.03 0.04 0.05 0.05 0.04 0.05 0.04 0.03 0.04 0.04 0.04 0.03 0.03 0.02 0.06 0.10 0.06 0.07 0.09 0.09 0.10 0.11 0.09 0.11 0.15 0.31 0.28 0.14 0.12 0.10 0.11 0.12
0.03 0.04 0.01 0.01 0.02 0.02 0.01 0.01 0.01 0.02 0.03 0.01 0.01 0.02 0.02 0.02 0.05 0.04 0.04 0.07 0.11 0.09 0.06 0.05 0.05 0.04 0.04 0.04 0.03 0.04 0.04 0.07 0.11 0.12 0.10 0.13 0.13 0.12 0.10 0.12 0.12 0.18 0.26 0.21 0.13 0.09 0.06 0.07 0.11
0.01 0.01 0.00 0.01 0.01 0.02 0.02 0.01 0.00 0.01 0.05 0.04 0.04 0.03 0.03 0.04 0.07 0.06 0.04 0.06 0.07 0.08 0.03 0.03 0.02 0.03 0.04 0.06 0.05 0.07 0.09 0.10 0.12 0.12 0.11 0.14 0.16 0.14 0.08 0.10 0.14 0.16 0.19 0.18 0.16 0.09 0.05 0.11 0.16
0.01 0.00 0.00 0.01 0.02 0.01 0.01 0.01 0.00 0.01 0.03 0.03 0.03 0.02 0.03 0.03 0.04 0.04 0.03 0.08 0.06 0.02 0.01 0.02 0.02 0.02 0.03 0.04 0.05 0.09 0.10 0.10 0.12 0.10 0.11 0.14 0.20 0.20 0.11 0.08 0.11 0.13 0.15 0.15 0.12 0.08 0.08 0.11 0.14
0.01 0.00 0.00 0.00 0.01 0.01 0.01 0.00 0.00 0.01 0.01 0.01 0.01 0.01 0.02 0.02 0.02 0.02 0.02 0.02 0.02 0.01 0.02 0.02 0.02 0.03 0.04 0.04 0.05 0.08 0.15 0.14 0.10 0.08 0.09 0.11 0.18 0.20 0.15 0.11 0.12 0.11 0.12 0.10 0.09 0.08 0.09 0.10 0.11
0.00 0.00 0.00 0.00 0.00 0.00 0.01 0.01 0.00 0.01 0.01 0.01 0.01 0.01 0.01 0.01 0.02 0.02 0.02 0.01 0.02 0.02 0.01 0.02 0.02 0.03 0.04 0.04 0.04 0.04 0.09 0.13 0.09 0.07 0.08 0.06 0.12 0.14 0.13 0.12 0.12 0.12 0.12 0.11 0.09 0.07 0.09 0.09 0.08
0.00 0.02 0.02 0.00 0.00 0.01 0.02 0.03 0.02 0.00 0.01 0.01 0.00 0.01 0.01 0.01 0.01 0.01 0.02 0.02 0.03 0.01 0.02 0.02 0.02 0.03 0.03 0.03 0.02 0.02 0.03 0.04 0.04 0.04 0.05 0.05 0.07 0.09 0.09 0.10 0.10 0.11 0.12 0.12 0.12 0.11 0.11 0.09 0.08
0.01 0.04 0.05 0.02 0.01 0.01 0.03 0.07 0.03 0.01 0.00 0.01 0.01 0.00 0.01 0.01 0.00 0.00 0.01 0.02 0.03 0.02 0.02 0.02 0.01 0.02 0.03 0.03 0.02 0.02 0.02 0.02 0.02 0.03 0.03 0.04 0.04 0.06 0.09 0.08 0.09 0.11 0.15 0.16 0.15 0.12 0.10 0.11 0.11
0.02 0.02 0.02 0.02 0.01 0.00 0.02 0.03 0.01 0.01 0.00 0.00 0.01 0.00 0.00 0.00 0.01 0.00 0.01 0.02 0.02 0.02 0.03 0.03 0.02 0.02 0.02 0.02 0.02 0.03 0.03 0.02 0.02 0.02 0.03 0.04 0.03 0.02 0.04 0.06 0.08 0.10 0.12 0.13 0.10 0.12 0.13 0.12 0.12
0.02 0.02 0.01 0.01 0.00 0.00 0.00 0.01 0.00 0.01 0.00 0.00 0.00 0.00 0.00 0.01 0.01 0.01 0.01 0.01 0.02 0.02 0.03 0.03 0.02 0.02 0.02 0.02 0.02 0.03 0.04 0.03 0.03 0.03 0.03 0.03 0.04 0.03 0.04 0.03 0.04 0.05 0.09 0.12 0.14 0.15 0.16 0.15 0.14
0.02 0.01 0.00 0.00 0.00 0.00 0.00 0.00 0.00 0.00 0.00 0.00 0.00 0.00 0.00 0.00 0.00 0.00 0.00 0.00 0.01 0.01 0.01 0.02 0.02 0.02 0.02 0.03 0.03 0.04 0.04 0.04 0.03 0.03 0.03 0.03 0.03 0.04 0.05 0.05 0.06 0.06 0.07 0.08 0.10 0.14 0.16 0.16 0.16
0.01 0.00 0.00 0.00 0.00 0.00 0.00 0.01 0.00 0.00 0.00 0.00 0.00 0.00 0.00 0.00 0.00 0.00 0.00 0.00 0.00 0.00 0.00 0.01 0.01 0.02 0.01 0.02 0.03 0.04 0.04 0.03 0.03 0.03 0.05 0.03 0.03 0.04 0.04 0.06 0.08 0.08 0.08 0.07 0.09 0.11 0.11 0.08 0.13
0.00 0.00 0.00 0.00 0.00 0.01 0.02 0.07 0.04 0.01 0.00 0.00 0.00 0.00 0.00 0.00 0.00 0.00 0.00 0.00 0.00 0.00 0.00 0.00 0.00 0.01 0.01 0.02 0.03 0.03 0.05 0.05 0.05 0.06 0.06 0.04 0.04 0.04 0.04 0.05 0.06 0.07 0.09 0.08 0.08 0.09 0.08 0.08 0.13
0.00 0.00 0.01 0.00 0.00 0.01 0.03 0.09 0.08 0.03 0.02 0.01 0.00 0.00 0.00 0.00 0.00 0.00 0.00 0.00 0.00 0.00 0.00 0.00 0.00 0.01 0.02 0.02 0.03 0.03 0.05 0.07 0.07 0.07 0.07 0.05 0.05 0.04 0.03 0.04 0.04 0.04 0.06 0.07 0.06 0.08 0.08 0.08 0.10
0.00 0.00 0.00 0.00 0.01 0.01 0.03 0.05 0.08 0.05 0.03 0.01 0.00 0.01 0.00 0.00 0.00 0.00 0.00 0.00 0.00 0.00 0.00 0.00 0.01 0.01 0.01 0.02 0.02 0.03 0.03 0.03 0.03 0.04 0.05 0.06 0.05 0.03 0.01 0.02 0.04 0.05 0.06 0.06 0.06 0.07 0.07 0.09 0.11
0.00 0.00 0.00 0.00 0.01 0.03 0.04 0.04 0.06 0.05 0.04 0.02 0.01 0.01 0.00 0.00 0.00 0.00 0.00 0.00 0.00 0.01 0.00 0.01 0.01 0.02 0.02 0.02 0.02 0.03 0.04 0.04 0.04 0.05 0.06 0.05 0.04 0.03 0.02 0.02 0.04 0.05 0.06 0.05 0.05 0.05 0.06 0.08 0.09
0.00 0.00 0.01 0.02 0.02 0.02 0.02 0.02 0.04 0.03 0.01 0.00 0.00 0.00 0.00 0.00 0.00 0.00 0.00 0.00 0.00 0.00 0.00 0.01 0.01 0.03 0.03 0.02 0.02 0.03 0.04 0.05 0.05 0.04 0.04 0.04 0.04 0.04 0.03 0.04 0.05 0.05 0.06 0.07 0.07 0.06 0.06 0.06 0.06
0.00 0.00 0.01 0.01 0.01 0.01 0.02 0.05 0.04 0.01 0.00 0.00 0.00 0.00 0.00 0.00 0.00 0.00 0.00 0.00 0.00 0.01 0.01 0.00 0.01 0.02 0.02 0.02 0.02 0.03 0.04 0.05 0.04 0.03 0.03 0.03 0.02 0.02 0.03 0.03 0.04 0.05 0.07 0.07 0.08 0.08 0.07 0.06 0.05
0.00 0.00 0.01 0.01 0.01 0.01 0.03 0.07 0.06 0.02 0.01 0.01 0.01 0.01 0.01 0.01 0.00 0.00 0.00 0.00 0.00 0.00 0.00 0.00 0.01 0.02 0.03 0.03 0.04 0.04 0.03 0.03 0.03 0.03 0.03 0.03 0.02 0.02 0.02 0.02 0.04 0.04 0.05 0.05 0.07 0.08 0.08 0.07 0.06
0.00 0.01 0.01 0.02 0.01 0.01 0.03 0.07 0.08 0.03 0.02 0.02 0.02 0.01 0.01 0.01 0.00 0.00 0.00 0.00 0.00 0.00 0.00 0.00 0.01 0.01 0.02 0.03 0.03 0.03 0.03 0.03 0.03 0.03 0.04 0.03 0.02 0.02 0.02 0.02 0.03 0.04 0.05 0.06 0.08 0.08 0.08 0.07 0.06
0.00 0.00 0.00 0.02 0.01 0.02 0.03 0.05 0.01 0.01 0.02 0.02 0.02 0.01 0.01 0.00 0.00 0.00 0.00 0.00 0.00 0.01 0.01 0.00 0.00 0.01 0.01 0.01 0.01 0.02 0.03 0.03 0.03 0.03 0.03 0.03 0.03 0.03 0.03 0.03 0.04 0.05 0.06 0.06 0.07 0.08 0.08 0.08 0.07
0.00 0.00 0.00 0.00 0.00 0.01 0.02 0.02 0.01 0.00 0.01 0.01 0.01 0.01 0.00 0.00 0.00 0.00 0.00 0.00 0.01 0.02 0.04 0.03 0.01 0.00 0.00 0.00 0.01 0.01 0.02 0.02 0.02 0.02 0.02 0.03 0.04 0.04 0.05 0.04 0.05 0.05 0.06 0.07 0.06 0.06 0.07 0.07 0.07
MSLP
1004.63 1005.22 1005.80 1006.22 1006.38 1006.24 1005.82 1005.23 1004.59 1004.07 1003.76 1003.70 1003.85 1004.11 1004.31 1004.31 1004.00 1003.36 1002.46 1001.43 1000.45 999.67 999.22 999.11 999.32 999.71 1000.16 1000.52 1000.74 1000.79 1000.73 1000.66 1000.68 1000.89 1001.30 1001.89 1002.59 1003.30 1003.91 1004.38 1004.67 1004.84 1004.94 1005.06 1005.26 1005.58 1006.02 1006.54 1007.07
1004.78 1005.40 1005.93 1006.23 1006.23 1005.91 1005.31 1004.54 1003.76 1003.13 1002.73 1002.61 1002.71 1002.91 1003.06 1003.02 1002.69 1002.05 1001.19 1000.23 999.35 998.70 998.37 998.39 998.71 999.19 999.69 1000.09 1000.31 1000.35 1000.27 1000.18 1000.19 1000.38 1000.78 1001.37 1002.06 1002.76 1003.37 1003.82 1004.12 1004.30 1004.42 1004.57 1004.81 1005.18 1005.66 1006.23 1006.81
1005.01 1005.62 1006.08 1006.27 1006.13 1005.65 1004.90 1004.00 1003.12 1002.39 1001.92 1001.71 1001.72 1001.82 1001.88 1001.75 1001.36 1000.70 999.86 998.98 998.21 997.69 997.51 997.67 998.10 998.66 999.21 999.62 999.83 999.85 999.73 999.60 999.57 999.72 1000.08 1000.64 1001.31 1002.00 1002.62 1003.10 1003.44 1003.67 1003.86 1004.08 1004.39 1004.82 1005.36 1005.97 1006.58
1005.21 1005.80 1006.19 1006.28 1006.03 1005.45 1004.61 1003.66 1002.73 1001.96 1001.43 1001.15 1001.06 1001.04 1000.97 1000.73 1000.26 999.57 998.74 997.92 997.25 996.86 996.81 997.08 997.60 998.20 998.76 999.15 999.31 999.27 999.09 998.88 998.78 998.87 999.19 999.71 1000.37 1001.07 1001.73 1002.27 1002.69 1003.02 1003.31 1003.63 1004.03 1004.53 1005.12 1005.77 1006.41
1005.29 1005.82 1006.14 1006.16 1005.85 1005.24 1004.41 1003.48 1002.58 1001.84 1001.30 1000.97 1000.80 1000.67 1000.47 1000.12 999.56 998.82 998.01 997.25 996.67 996.38 996.42 996.76 997.29 997.89 998.39 998.70 998.77 998.62 998.33 998.03 997.85 997.88 998.15 998.65 999.32 1000.05 1000.77 1001.41 1001.95 1002.40 1002.81 1003.24 1003.73 1004.31 1004.95 1005.62 1006.27
1005.14 1005.59 1005.84 1005.81 1005.50 1004.93 1004.19 1003.37 1002.58 1001.93 1001.44 1001.12 1000.89 1000.67 1000.37 999.92 999.30 998.54 997.75 997.05 996.55 996.33 996.41 996.75 997.25 997.75 998.13 998.30 998.22 997.93 997.52 997.12 996.86 996.83 997.07 997.57 998.26 999.05 999.85 1000.59 1001.25 1001.83 1002.36 1002.90 1003.47 1004.10 1004.77 1005.46 1006.11
1004.71 1005.05 1005.22 1005.17 1004.89 1004.43 1003.83 1003.19 1002.58 1002.07 1001.69 1001.40 1001.17 1000.91 1000.55 1000.05 999.41 998.67 997.93 997.30 996.87 996.69 996.78 997.06 997.45 997.80 998.01 997.99 997.73 997.28 996.74 996.25 995.92 995.86 996.09 996.60 997.32 998.17 999.04 999.87 1000.63 1001.30 1001.93 1002.54 1003.18 1003.84 1004.54 1005.23 1005.89
1004.02 1004.23 1004.31 1004.24 1004.02 1003.69 1003.28 1002.84 1002.44 1002.11 1001.85 1001.64 1001.43 1001.18 1000.82 1000.33 999.72 999.06 998.41 997.87 997.51 997.37 997.43 997.63 997.86 998.03 998.02 997.79 997.34 996.74 996.10 995.53 995.18 995.10 995.34 995.87 996.62 997.49 998.40 999.28 1000.08 1000.81 1001.48 1002.13 1002.79 1003.48 1004.18 1004.89 1005.56
1003.17 1003.22 1003.21 1003.12 1002.96 1002.75 1002.51 1002.28 1002.08 1001.92 1001.79 1001.67 1001.52 1001.30 1000.99 1000.57 1000.06 999.52 999.01 998.60 998.33 998.22 998.25 998.35 998.42 998.39 998.17 997.74 997.13 996.42 995.70 995.11 994.75 994.69 994.94 995.48 996.22 997.09 997.98 998.84 999.63 1000.34 1001.00 1001.64 1002.30 1002.98 1003.70 1004.42 1005.12
1002.30 1002.20 1002.09 1001.96 1001.84 1001.72 1001.63 1001.56 1001.51 1001.49 1001.47 1001.43 1001.34 1001.19 1000.95 1000.64 1000.28 999.91 999.58 999.32 999.17 999.11 999.12 999.13 999.06 998.86 998.46 997.89 997.17 996.39 995.65 995.07 994.74 994.70 994.96 995.48 996.19 996.99 997.81 998.58 999.28 999.91 1000.50 1001.10 1001.72 1002.40 1003.12 1003.87 1004.62
1001.58 1001.34 1001.13 1000.96 1000.84 1000.78 1000.77 1000.80 1000.86 1000.91 1000.96 1000.97 1000.93 1000.84 1000.70 1000.52 1000.33 1000.15 1000.01 999.93 999.91 999.93 999.94 999.90 999.73 999.40 998.90 998.24 997.47 996.69 995.98 995.45 995.17 995.16 995.42 995.89 996.51 997.20 997.87 998.49 999.05 999.55 1000.04 1000.56 1001.14 1001.81 1002.54 1003.33 1004.12
1001.13 1000.79 1000.50 1000.28 1000.14 1000.09 1000.11 1000.18 1000.27 1000.34 1000.40 1000.41 1000.40 1000.35 1000.30 1000.25 1000.22 1000.24 1000.30 1000.39 1000.51 1000.61 1000.65 1000.59 1000.38 1000.00 999.46 998.78 998.04 997.31 996.68 996.23 996.01 996.02 996.26 996.66 997.15 997.67 998.16 998.60 998.97 999.32 999.69 1000.13 1000.66 1001.32 1002.07 1002.89 1003.73
1001.04 1000.65 1000.30 1000.03 999.87 999.80 999.81 999.86 999.92 999.96 999.97 999.96 999.92 999.90 999.90 999.95 1000.07 1000.24 1000.46 1000.71 1000.95 1001.13 1001.23 1001.18 1000.98 1000.61 1000.10 999.48 998.83 998.20 997.68 997.33 997.16 997.19 997.38 997.68 998.02 998.35 998.64 998.88 999.07 999.27 999.53 999.89 1000.39 1001.03 1001.81 1002.66 1003.54
1001.31 1000.91 1000.54 1000.26 1000.07 999.98 999.95 999.96 999.95 999.92 999.86 999.77 999.70 999.65 999.67 999.78 999.97 1000.25 1000.58 1000.93 1001.25 1001.50 1001.64 1001.64 1001.48 1001.18 1000.76 1000.26 999.74 999.26 998.87 998.61 998.49 998.52 998.64 998.82 999.00 999.16 999.26 999.31 999.36 999.43 999.60 999.91 1000.39 1001.03 1001.82 1002.70 1003.58
1001.85 1001.48 1001.14 1000.87 1000.68 1000.58 1000.52 1000.48 1000.41 1000.29 1000.14 999.97 999.82 999.73 999.72 999.83 1000.04 1000.35 1000.72 1001.11 1001.46 1001.74 1001.91 1001.96 1001.87 1001.67 1001.37 1001.02 1000.66 1000.33 1000.07 999.90 999.83 999.83 999.88 999.95 999.99 999.99 999.94 999.87 999.80 999.80 999.92 1000.21 1000.68 1001.33 1002.12 1002.99 1003.86
1002.52 1002.22 1001.94 1001.72 1001.57 1001.49 1001.43 1001.36 1001.24 1001.05 1000.82 1000.56 1000.33 1000.16 1000.10 1000.15 1000.32 1000.60 1000.93 1001.28 1001.60 1001.87 1002.04 1002.13 1002.11 1002.02 1001.86 1001.67 1001.48 1001.31 1001.17 1001.08 1001.03 1001.00 1000.99 1000.95 1000.88 1000.77 1000.63 1000.48 1000.37 1000.35 1000.46 1000.74 1001.21 1001.86 1002.64 1003.48 1004.31
1003.18 1002.96 1002.77 1002.65 1002.59 1002.57 1002.55 1002.48 1002.34 1002.10 1001.81 1001.47 1001.16 1000.91 1000.75 1000.72 1000.80 1000.98 1001.21 1001.46 1001.71 1001.91 1002.06 1002.16 1002.20 1002.21 1002.19 1002.16 1002.13 1002.10 1002.07 1002.03 1002.00 1001.95 1001.87 1001.76 1001.62 1001.45 1001.27 1001.11 1001.01 1001.01 1001.15 1001.45 1001.92 1002.55 1003.29 1004.08 1004.84
1003.72 1003.60 1003.53 1003.53 1003.59 1003.67 1003.72 1003.70 1003.57 1003.32 1002.98 1002.59 1002.20 1001.86 1001.61 1001.47 1001.43 1001.47 1001.56 1001.68 1001.80 1001.91 1002.00 1002.08 1002.17 1002.26 1002.36 1002.47 1002.57 1002.66 1002.71 1002.73 1002.71 1002.63 1002.51 1002.36 1002.19 1002.01 1001.85 1001.73 1001.68 1001.73 1001.91 1002.23 1002.70 1003.29 1003.97 1004.68 1005.36
1004.08 1004.06 1004.12 1004.28 1004.49 1004.70 1004.86 1004.91 1004.81 1004.57 1004.20 1003.77 1003.32 1002.90 1002.56 1002.31 1002.14 1002.04 1001.98 1001.95 1001.92 1001.91 1001.92 1001.97 1002.07 1002.21 1002.40 1002.62 1002.83 1003.02 1003.14 1003.20 1003.18 1003.09 1002.95 1002.79 1002.62 1002.47 1002.36 1002.31 1002.34 1002.46 1002.69 1003.02 1003.46 1003.99 1004.58 1005.20 1005.79
1004.27 1004.36 1004.57 1004.89 1005.27 1005.64 1005.91 1006.04 1005.99 1005.76 1005.38 1004.91 1004.42 1003.94 1003.53 1003.19 1002.91 1002.68 1002.48 1002.30 1002.14 1002.00 1001.92 1001.91 1002.00 1002.17 1002.42 1002.70 1002.99 1003.25 1003.42 1003.50 1003.49 1003.40 1003.26 1003.10 1002.96 1002.86 1002.82 1002.86 1002.98 1003.16 1003.42 1003.75 1004.15 1004.59 1005.07 1005.57 1006.06
1004.36 1004.56 1004.93 1005.43 1005.98 1006.49 1006.88 1007.08 1007.06 1006.84 1006.45 1005.96 1005.43 1004.92 1004.46 1004.07 1003.72 1003.40 1003.10 1002.80 1002.52 1002.28 1002.10 1002.02 1002.07 1002.23 1002.50 1002.82 1003.15 1003.44 1003.65 1003.75 1003.74 1003.65 1003.52 1003.38 1003.28 1003.24 1003.28 1003.40 1003.58 1003.82 1004.09 1004.40 1004.72 1005.06 1005.42 1005.79 1006.17
1004.45 1004.77 1005.30 1005.96 1006.67 1007.30 1007.78 1008.04 1008.04 1007.81 1007.41 1006.90 1006.36 1005.84 1005.37 1004.96 1004.59 1004.23 1003.88 1003.51 1003.14 1002.81 1002.54 1002.39 1002.38 1002.51 1002.75 1003.07 1003.41 1003.71 1003.92 1004.02 1004.02 1003.93 1003.81 1003.70 1003.64 1003.65 1003.75 1003.93 1004.16 1004.43 1004.69 1004.95 1005.19 1005.41 1005.64 1005.88 1006.14
1004.60 1005.06 1005.74 1006.55 1007.38 1008.11 1008.65 1008.93 1008.93 1008.69 1008.26 1007.74 1007.20 1006.70 1006.26 1005.88 1005.53 1005.19 1004.83 1004.44 1004.03 1003.63 1003.29 1003.06 1002.98 1003.04 1003.24 1003.51 1003.82 1004.10 1004.29 1004.39 1004.38 1004.30 1004.19 1004.10 1004.06 1004.12 1004.26 1004.47 1004.73 1004.99 1005.23 1005.42 1005.57 1005.68 1005.77 1005.88 1006.03
1004.85 1005.44 1006.25 1007.18 1008.10 1008.90 1009.46 1009.74 1009.73 1009.46 1009.02 1008.51 1007.99 1007.52 1007.14 1006.83 1006.56 1006.28 1005.96 1005.59 1005.17 1004.73 1004.34 1004.03 1003.86 1003.84 1003.95 1004.16 1004.40 1004.63 1004.79 1004.87 1004.85 1004.76 1004.66 1004.58 1004.56 1004.64 1004.80 1005.03 1005.28 1005.53 1005.72 1005.85 1005.91 1005.91 1005.88 1005.87 1005.91
1005.19 1005.89 1006.80 1007.81 1008.79 1009.60 1010.16 1010.43 1010.39 1010.11 1009.67 1009.18 1008.71 1008.31 1008.02 1007.81 1007.64 1007.46 1007.21 1006.88 1006.48 1006.04 1005.60 1005.23 1004.97 1004.85 1004.86 1004.97 1005.13 1005.29 1005.40 1005.43 1005.39 1005.31 1005.20 1005.13 1005.12 1005.20 1005.36 1005.58 1005.82 1006.04 1006.19 1006.25 1006.23 1006.14 1006.02 1005.90 1005.84
1005.55 1006.33 1007.30 1008.34 1009.32 1010.13 1010.67 1010.91 1010.87 1010.59 1010.18 1009.73 1009.34 1009.04 1008.86 1008.76 1008.71 1008.63 1008.48 1008.22 1007.85 1007.42 1006.95 1006.53 1006.19 1005.97 1005.87 1005.87 1005.94 1006.01 1006.06 1006.06 1005.99 1005.89 1005.78 1005.71 1005.70 1005.78 1005.93 1006.13 1006.35 1006.53 1006.63 1006.65 1006.57 1006.41 1006.22 1006.02 1005.87
1005.84 1006.65 1007.63 1008.66 1009.61 1010.38 1010.90 1011.13 1011.10 1010.86 1010.51 1010.15 1009.85 1009.67 1009.60 1009.62 1009.68 1009.71 1009.65 1009.46 1009.15 1008.73 1008.27 1007.80 1007.40 1007.09 1006.90 1006.80 1006.77 1006.76 1006.74 1006.69 1006.60 1006.48 1006.38 1006.30 1006.29 1006.36 1006.49 1006.67 1006.86 1007.01 1007.08 1007.06 1006.94 1006.74 1006.50 1006.25 1006.04
1005.99 1006.79 1007.72 1008.69 1009.58 1010.31 1010.80 1011.04 1011.06 1010.89 1010.65 1010.40 1010.22 1010.16 1010.20 1010.33 1010.48 1010.60 1010.62 1010.50 1010.25 1009.87 1009.42 1008.94 1008.51 1008.14 1007.87 1007.69 1007.57 1007.48 1007.40 1007.31 1007.19 1007.07 1006.95 1006.88 1006.87 1006.93 1007.05 1007.20 1007.36 1007.48 1007.53 1007.49 1007.35 1007.14 1006.87 1006.60 1006.35
1005.96 1006.70 1007.54 1008.41 1009.22 1009.89 1010.38 1010.66 1010.76 1010.72 1010.61 1010.50 1010.46 1010.50 1010.65 1010.86 1011.08 1011.25 1011.33 1011.27 1011.07 1010.75 1010.33 1009.88 1009.45 1009.06 1008.74 1008.50 1008.32 1008.17 1008.04 1007.90 1007.76 1007.63 1007.52 1007.45 1007.44 1007.49 1007.59 1007.73 1007.86 1007.96 1007.99 1007.94 1007.80 1007.58 1007.32 1007.04 1006.78
1005.80 1006.43 1007.14 1007.89 1008.60 1009.23 1009.73 1010.08 1010.30 1010.40 1010.46 1010.51 1010.60 1010.75 1010.97 1011.23 1011.48 1011.68 1011.79 1011.77 1011.63 1011.37 1011.02 1010.62 1010.22 1009.85 1009.52 1009.25 1009.03 1008.83 1008.66 1008.49 1008.33 1008.19 1008.08 1008.01 1008.00 1008.04 1008.14 1008.25 1008.36 1008.44 1008.45 1008.39 1008.25 1008.05 1007.80 1007.54 1007.29
Thickness
5833 5833 5831 5822 5803 5794 5795 5807 5818 5819 5821 5829 5830 5823 5810 5803 5793 5780 5806 5816 5812 5805 5800 5795 5792 5790 5789 5787 5786 5784 5783 5782 5780 5779 5778 5777 5775 5774 5774 5773 5772 5771 5770 5769 5768 5768 5768 5767 5767
5841 5840 5829 5816 5797 5789 5797 5815 5817 5820 5828 5834 5831 5823 5812 5806 5811 5807 5811 5815 5814 5808 5802 5797 5792 5790 5788 5786 5785 5784 5782 5781 5780 5778 5777 5776 5775 5774 5773 5772 5771 5770 5769 5768 5768 5767 5767 5767 5766
5844 5843 5823 5812 5805 5799 5802 5818 5823 5831 5837 5833 5825 5821 5810 5805 5811 5812 5815 5818 5815 5809 5803 5797 5793 5790 5788 5786 5784 5783 5782 5780 5779 5778 5777 5775 5774 5773 5772 5771 5770 5769 5769 5768 5767 5767 5766 5766 5765
5845 5836 5824 5815 5807 5818 5822 5827 5833 5830 5833 5834 5826 5812 5811 5818 5818 5818 5821 5821 5815 5810 5804 5798 5793 5790 5788 5786 5784 5782 5781 5780 5779 5777 5776 5775 5774 5773 5772 5771 5770 5769 5768 5767 5766 5766 5765 5765 5765
5845 5827 5813 5811 5814 5827 5836 5839 5839 5828 5826 5828 5822 5804 5801 5819 5825 5824 5823 5821 5815 5810 5804 5798 5794 5791 5788 5786 5784 5782 5780 5779 5778 5777 5776 5775 5773 5772 5771 5770 5769 5769 5768 5767 5766 5766 5765 5765 5764
5833 5827 5809 5805 5817 5831 5838 5843 5840 5831 5828 5828 5820 5805 5801 5819 5822 5823 5824 5821 5817 5810 5803 5797 5794 5791 5788 5786 5784 5782 5780 5779 5777 5776 5775 5774 5773 5772 5771 5770 5769 5769 5767 5766 5766 5765 5765 5765 5764
5828 5824 5817 5821 5821 5826 5836 5847 5838 5831 5827 5828 5829 5808 5806 5816 5823 5826 5824 5822 5817 5811 5805 5799 5795 5792 5789 5786 5784 5782 5781 5779 5778 5777 5776 5774 5773 5772 5771 5770 5769 5769 5768 5766 5766 5765 5766 5765 5764
5851 5831 5823 5826 5821 5823 5842 5846 5844 5835 5830 5841 5836 5812 5802 5816 5826 5826 5823 5819 5815 5811 5807 5802 5799 5795 5791 5788 5785 5783 5782 5780 5779 5778 5777 5775 5774 5772 5771 5770 5769 5768 5768 5766 5766 5766 5766 5765 5764
5860 5827 5818 5828 5827 5829 5843 5841 5843 5849 5838 5837 5835 5827 5821 5826 5826 5821 5815 5812 5809 5807 5806 5804 5801 5797 5794 5791 5788 5785 5783 5781 5780 5779 5777 5776 5775 5774 5772 5771 5770 5769 5768 5767 5767 5767 5766 5765 5765
5851 5824 5831 5847 5848 5844 5845 5842 5843 5838 5826 5824 5825 5826 5827 5825 5820 5814 5809 5805 5802 5802 5804 5804 5802 5799 5796 5794 5789 5787 5785 5782 5780 5779 5777 5776 5775 5774 5774 5772 5771 5769 5768 5767 5767 5767 5767 5766 5767
5858 5842 5852 5858 5860 5857 5848 5846 5849 5835 5818 5821 5819 5819 5822 5820 5817 5813 5809 5806 5803 5803 5804 5804 5802 5799 5796 5793 5790 5788 5786 5782 5780 5778 5777 5776 5775 5775 5773 5771 5770 5769 5769 5767 5767 5767 5767 5767 5767
5861 5862 5865 5863 5865 5859 5851 5848 5842 5836 5829 5836 5833 5828 5823 5818 5815 5812 5808 5806 5805 5803 5803 5803 5801 5797 5794 5792 5790 5788 5785 5782 5780 5778 5776 5776 5775 5774 5773 5771 5770 5770 5769 5768 5768 5767 5767 5767 5767
5863 5864 5870 5870 5867 5862 5856 5847 5840 5836 5841 5841 5836 5830 5823 5820 5816 5815 5813 5809 5805 5802 5802 5801 5799 5795 5792 5790 5788 5787 5784 5783 5780 5778 5776 5775 5774 5773 5772 5771 5770 5770 5769 5768 5767 5767 5766 5766 5766
5868 5868 5868 5867 5864 5861 5848 5844 5841 5836 5843 5837 5831 5825 5823 5820 5817 5814 5811 5807 5805 5802 5801 5801 5798 5794 5791 5788 5786 5785 5784 5782 5780 5777 5775 5774 5773 5772 5771 5770 5769 5768 5768 5768 5766 5766 5765 5765 5765
5869 5850 5848 5858 5860 5858 5846 5827 5831 5842 5843 5833 5828 5824 5823 5821 5818 5814 5811 5807 5805 5802 5801 5800 5798 5794 5790 5787 5785 5784 5783 5781 5779 5776 5774 5773 5772 5770 5769 5768 5767 5767 5767 5766 5765 5764 5764 5763 5763
5853 5834 5821 5841 5855 5858 5838 5810 5832 5845 5840 5830 5826 5823 5821 5819 5818 5816 5813 5808 5806 5803 5799 5798 5798 5793 5789 5786 5784 5783 5781 5779 5777 5775 5773 5771 5769 5768 5767 5766 5765 5765 5765 5764 5762 5761 5760 5760 5760
5835 5819 5820 5834 5856 5858 5840 5820 5835 5846 5841 5830 5827 5825 5821 5818 5817 5816 5814 5809 5806 5802 5798 5795 5794 5791 5788 5785 5782 5781 5779 5778 5776 5774 5771 5769 5768 5766 5765 5764 5763 5763 5762 5761 5761 5759 5758 5756 5757
5828 5832 5835 5841 5857 5856 5843 5832 5841 5846 5842 5833 5829 5826 5822 5817 5816 5816 5814 5811 5806 5802 5798 5794 5792 5789 5787 5784 5781 5779 5777 5776 5774 5772 5769 5767 5766 5764 5763 5762 5762 5761 5759 5758 5757 5756 5756 5755 5755
5854 5847 5843 5852 5867 5856 5843 5837 5841 5846 5841 5834 5830 5826 5822 5819 5820 5818 5815 5811 5806 5801 5796 5792 5789 5787 5784 5781 5777 5774 5772 5772 5771 5770 5768 5766 5764 5762 5761 5760 5759 5759 5757 5755 5754 5753 5752 5752 5754
5857 5848 5846 5856 5866 5856 5840 5831 5842 5846 5841 5839 5832 5826 5822 5819 5817 5815 5813 5810 5805 5799 5795 5791 5787 5785 5783 5780 5778 5775 5773 5771 5769 5767 5766 5764 5762 5760 5760 5756 5756 5756 5754 5752 5752 5750 5748 5748 5750
5854 5851 5850 5849 5856 5857 5840 5816 5827 5838 5844 5842 5839 5835 5828 5822 5817 5814 5812 5809 5805 5800 5795 5792 5787 5785 5782 5780 5778 5775 5771 5768 5766 5763 5762 5762 5760 5759 5757 5756 5754 5754 5752 5750 5749 5747 5745 5743 5746
5847 5865 5862 5857 5844 5829 5828 5795 5813 5827 5830 5835 5836 5835 5831 5827 5822 5817 5813 5809 5806 5802 5799 5794 5788 5785 5782 5779 5775 5771 5765 5762 5761 5761 5760 5760 5759 5757 5756 5754 5753 5751 5750 5748 5747 5746 5744 5742 5739
5857 5872 5863 5854 5841 5828 5824 5801 5803 5824 5818 5826 5834 5835 5834 5831 5825 5820 5816 5811 5808 5805 5800 5795 5789 5784 5781 5778 5774 5770 5766 5764 5763 5761 5758 5757 5756 5755 5753 5752 5750 5749 5747 5746 5745 5744 5742 5740 5737
5872 5866 5857 5850 5834 5804 5816 5805 5797 5819 5823 5827 5833 5836 5834 5832 5827 5822 5818 5813 5808 5805 5801 5795 5787 5783 5780 5776 5773 5768 5764 5762 5759 5757 5754 5754 5754 5752 5750 5749 5748 5746 5745 5743 5742 5741 5740 5738 5736
5865 5843 5814 5802 5799 5801 5826 5813 5805 5827 5840 5838 5834 5834 5834 5832 5826 5820 5814 5809 5805 5802 5798 5793 5786 5781 5778 5775 5772 5768 5764 5761 5758 5755 5753 5751 5750 5748 5747 5747 5744 5743 5742 5741 5739 5738 5736 5735 5732
5856 5846 5814 5792 5798 5811 5818 5804 5815 5838 5845 5846 5843 5838 5834 5829 5825 5819 5815 5810 5805 5801 5796 5791 5784 5779 5777 5773 5769 5766 5763 5760 5758 5755 5753 5751 5748 5747 5746 5744 5743 5741 5739 5738 5736 5734 5732 5731 5729
5848 5845 5853 5833 5824 5806 5802 5809 5821 5836 5835 5838 5836 5833 5828 5824 5823 5820 5815 5811 5806 5800 5795 5790 5783 5778 5775 5771 5767 5763 5761 5758 5755 5754 5751 5749 5747 5746 5743 5741 5740 5738 5736 5734 5732 5729 5728 5727 5725
5862 5853 5841 5822 5794 5783 5793 5794 5802 5815 5822 5828 5828 5826 5826 5824 5822 5819 5815 5810 5806 5801 5794 5789 5783 5777 5773 5770 5765 5762 5758 5756 5753 5750 5747 5745 5744 5742 5740 5738 5736 5734 5732 5730 5728 5725 5724 5722 5720
5849 5846 5838 5827 5819 5796 5781 5789 5826 5825 5827 5825 5828 5830 5826 5824 5821 5818 5814 5809 5804 5798 5792 5786 5780 5775 5770 5767 5763 5759 5756 5753 5751 5747 5744 5742 5740 5738 5736 5733 5731 5729 5726 5725 5723 5720 5719 5716 5714
5853 5847 5841 5817 5811 5815 5802 5799 5841 5837 5836 5831 5831 5831 5828 5824 5821 5817 5812 5806 5801 5794 5788 5781 5778 5773 5769 5765 5761 5756 5753 5750 5747 5744 5742 5739 5736 5734 5731 5729 5727 5724 5722 5720 5717 5715 5713 5711 5708